Temp
14 13 14 14 14 14 14 13 13 14 14 14 14 14 14 14 13 13 13 13 12 12 11 12 12 13 13 13 13 13 13 13 13 13 13 13 13 13 13 13 13 13 13 13 13 13 13 13 13 13 13 13 12 12 12 12 12 12 12 12 12 12 12 11 11 11 11 11 11
13 13 13 13 13 13 13 13 13 13 13 13 13 13 12 12 12 12 11 11 10 10 10 11 11 12 12 12 13 13 13 13 13 13 13 13 13 13 13 13 13 13 13 13 13 13 13 13 13 13 12 12 12 12 12 12 12 12 12 12 12 12 11 11 11 11 11 11 11
12 12 12 12 12 12 12 11 11 11 11 11 11 11 11 11 10 10 10 10 9 9 9 9 10 10 11 11 12 12 13 13 13 13 13 13 13 13 13 12 13 13 13 12 12 12 12 12 12 12 12 12 12 12 12 11 11 12 12 11 11 11 11 11 11 10 10 10 10
11 11 11 11 11 10 10 10 10 10 10 10 10 10 10 9 9 9 9 9 9 9 9 9 9 10 10 10 11 12 12 12 12 12 12 12 12 12 12 12 12 12 12 12 12 12 12 12 12 12 12 12 12 12 11 11 11 11 11 11 11 11 10 10 10 10 10 10 10
10 10 10 9 9 9 9 9 9 9 9 9 9 9 8 8 8 9 9 9 9 9 9 9 9 9 9 9 9 10 10 10 10 10 11 11 11 12 12 12 12 12 12 12 12 12 12 12 12 12 12 11 11 11 11 11 11 11 11 10 10 10 10 10 10 10 10 10 10
8 8 8 8 8 8 8 8 8 8 8 8 8 8 8 8 8 9 9 9 9 9 9 9 9 9 8 8 8 8 8 8 9 9 9 10 10 11 11 12 12 12 12 12 12 12 12 12 12 11 11 11 11 11 11 11 11 10 10 10 10 10 9 9 9 9 9 9 9
7 7 7 7 7 7 7 7 7 7 8 8 7 7 7 7 8 9 9 9 9 9 9 9 9 9 9 9 9 9 9 9 9 9 9 10 10 10 11 11 12 12 12 12 12 12 12 12 12 11 11 11 11 11 11 11 11 10 10 10 10 9 9 9 9 9 9 9 9
6 6 6 6 6 7 7 7 8 8 8 7 7 7 7 7 7 8 8 9 9 9 9 9 9 9 9 9 10 10 10 10 10 10 10 10 10 11 11 12 12 12 12 11 11 12 12 12 12 11 11 11 11 11 11 11 11 11 10 10 10 10 10 10 9 9 9 9 9
6 6 6 6 7 7 7 8 8 8 8 7 7 7 7 7 8 8 8 8 9 9 9 9 9 9 9 10 10 10 10 10 10 10 10 10 11 11 12 12 12 12 12 11 11 11 11 11 11 11 11 11 11 11 11 11 11 11 10 10 10 10 10 10 10 9 9 9 9
5 5 6 6 6 7 7 8 8 8 8 7 7 7 7 8 8 8 8 8 8 9 9 9 9 9 9 9 9 9 9 9 9 9 10 11 11 12 12 12 12 12 12 11 11 11 11 11 11 11 11 10 10 10 10 10 10 10 10 10 10 10 10 9 9 9 9 9 9
5 5 5 6 6 7 8 8 8 8 8 7 7 8 8 8 8 8 8 9 9 9 9 8 8 9 9 9 9 9 9 9 9 10 10 11 11 11 11 11 11 11 11 11 11 11 11 11 10 10 10 10 10 10 10 10 10 10 10 9 9 9 9 9 9 9 8 8 8
4 5 5 6 6 7 8 8 7 7 7 7 8 8 8 8 8 8 9 9 9 9 9 8 9 9 9 9 9 9 9 10 10 10 11 11 11 11 11 11 11 11 11 11 10 10 10 10 10 10 10 10 10 10 10 10 10 10 9 9 9 9 9 8 8 8 7 7 7
4 4 5 5 6 7 7 7 7 7 7 7 8 8 8 8 8 9 9 9 9 9 9 9 9 9 9 9 9 10 10 10 10 10 10 10 10 10 10 10 10 10 10 10 10 10 10 10 10 10 10 10 10 10 10 9 9 9 9 9 9 8 8 8 8 7 7 6 6
4 5 5 6 6 7 7 7 7 7 7 7 7 8 8 8 8 9 9 9 9 9 9 9 9 9 9 9 9 9 9 9 10 10 10 10 10 10 10 10 10 10 10 10 10 10 10 10 10 10 10 9 9 9 9 9 9 8 8 8 8 7 7 7 6 6 6 5 5
4 5 5 6 6 7 7 6 6 6 6 6 7 7 7 7 8 8 9 9 9 9 9 9 8 8 8 8 9 9 9 9 10 10 10 10 10 10 10 10 10 10 10 10 10 10 10 10 10 9 9 9 8 8 8 8 8 7 7 7 6 6 6 6 5 5 5 4 4
4 5 5 6 6 6 6 6 6 6 6 6 7 7 7 7 7 8 8 8 8 8 8 8 8 8 8 8 9 9 9 9 10 10 10 10 10 10 10 10 10 10 10 9 9 9 9 9 9 8 8 8 8 7 7 7 7 6 6 6 6 5 5 5 5 4 4 4 3
4 5 6 6 6 6 6 6 6 6 6 6 7 7 7 7 7 7 7 7 7 8 8 8 8 8 8 9 9 9 9 10 10 10 10 10 10 9 9 9 9 9 9 9 8 8 8 8 7 7 7 7 7 6 6 6 6 5 5 5 5 5 4 4 4 4 4 3 3
4 4 5 5 5 5 5 5 5 5 6 6 6 6 6 6 6 7 7 7 7 8 8 8 8 8 9 9 9 9 9 9 9 9 9 9 9 8 8 8 8 8 8 7 7 7 7 7 6 6 6 6 5 5 5 5 4 4 4 4 4 4 4 3 3 3 3 3 2
3 3 4 4 4 4 4 4 5 5 5 5 5 6 6 6 6 7 7 7 7 8 8 8 8 9 9 9 9 9 8 8 8 8 8 8 7 7 7 7 7 7 6 6 6 6 6 5 5 5 5 4 4 4 3 3 3 3 3 3 3 3 3 2 2 2 2 2 2
2 2 3 3 3 4 4 4 4 4 5 5 5 6 6 6 7 7 7 7 7 8 8 8 8 8 8 8 8 8 7 7 7 7 7 7 6 6 6 6 6 6 5 5 5 5 5 4 4 4 4 3 3 3 3 2 2 2 2 2 2 2 2 2 2 2 1 1 1
2 2 3 3 3 4 4 4 5 5 5 6 6 6 6 7 7 7 7 7 7 7 7 7 7 7 7 7 7 7 6 6 6 6 6 6 6 6 6 5 5 5 5 5 5 4 4 4 4 3 3 2 2 2 2 2 2 2 2 2 2 2 2 2 2 1 1 1 1
2 3 3 3 4 4 4 5 5 6 6 6 6 6 6 7 7 6 6 6 6 7 7 7 6 6 6 6 6 6 5 5 5 5 5 5 5 5 5 5 5 5 5 5 4 4 4 4 3 3 2 2 2 2 2 2 2 2 2 2 2 2 2 2 2 2 1 1 1
3 3 4 4 4 5 5 5 5 6 6 6 6 6 6 6 6 5 5 6 6 6 6 6 6 6 5 5 5 5 5 5 5 5 5 5 5 5 5 5 5 5 5 4 4 4 3 3 2 2 2 2 2 2 2 2 2 2 2 2 2 2 2 2 2 2 2 2 1
3 4 4 4 4 5 5 5 5 5 5 5 5 5 5 5 5 5 5 5 5 5 5 5 5 5 5 5 5 5 5 5 5 5 5 5 5 5 5 5 5 5 4 4 4 3 3 2 2 2 2 2 2 2 2 2 2 2 2 2 2 2 2 2 2 2 2 1 1
3 4 4 4 4 4 4 4 4 4 4 4 4 4 4 4 4 4 4 4 4 4 4 4 4 4 4 4 4 5 5 5 5 5 5 5 5 5 5 5 5 5 4 4 4 3 2 2 1 1 1 1 1 1 1 1 1 1 1 1 1 1 1 1 1 1 1 1 1
3 3 3 4 4 4 4 4 4 4 3 3 3 4 4 4 4 4 4 4 4 4 4 4 4 4 4 4 4 4 5 5 5 5 5 5 5 5 5 5 5 5 4 4 4 3 2 2 1 1 1 1 1 1 1 1 1 0 0 0 0 0 0 0 -0 -0 -0 -0 -0
3 3 3 3 3 3 3 3 3 3 3 3 3 3 3 3 4 4 4 4 4 4 4 4 4 4 4 4 4 4 5 5 5 5 5 5 5 5 5 4 4 4 4 4 3 2 2 1 1 0 0 1 0 0 0 0 0 -0 -0 -0 -0 -0 -0 -1 -1 -1 -1 -1 -1
2 3 3 3 3 3 3 3 3 3 3 3 3 3 3 3 4 4 4 4 4 4 4 4 4 4 4 4 4 4 4 4 4 4 4 4 4 4 4 4 3 3 3 3 2 1 1 0 0 0 0 0 0 0 0 -0 -0 -0 -0 -0 -0 -1 -1 -1 -1 -1 -1 -1 -1
2 2 3 3 3 3 3 3 3 3 3 3 3 3 3 3 4 4 4 4 4 4 4 4 4 4 4 4 4 4 4 4 4 4 4 3 3 3 3 3 2 2 2 2 1 1 0 -0 -0 -0 0 0 0 0 -0 -0 -0 -0 -0 -1 -1 -1 -1 -1 -1 -1 -1 -1 -1
2 2 2 2 2 2 2 2 2 2 3 3 3 3 3 4 4 4 4 4 4 4 4 3 3 3 3 3 3 3 3 3 3 3 3 3 3 2 2 2 2 2 2 2 1 1 0 -0 -0 -0 -0 -0 0 -0 -0 -0 -0 -1 -1 -1 -1 -1 -1 -1 -2 -2 -2 -1 -1
2 2 2 2 2 2 2 2 2 2 3 3 3 4 4 4 4 4 3 3 3 3 3 3 3 3 3 2 2 2 2 2 2 2 2 2 2 2 2 2 2 2 2 2 2 1 1 0 -0 -0 -0 -0 -0 -0 -0 -0 -1 -1 -1 -1 -1 -2 -2 -2 -2 -2 -2 -2 -2
2 2 2 3 3 2 2 2 3 3 3 3 3 4 3 3 3 3 3 2 2 2 2 2 2 2 2 2 2 2 2 2 2 2 2 2 3 3 3 3 2 2 2 2 2 2 1 1 0 -0 -0 -0 -0 -0 -0 -1 -1 -1 -1 -2 -2 -2 -2 -2 -2 -2 -2 -2 -2
3 3 3 3 3 3 3 3 3 3 3 3 3 3 2 2 2 2 2 2 2 1 1 1 1 1 1 2 2 2 2 2 2 2 3 3 3 3 3 3 2 2 2 2 2 1 1 0 -0 -0 -1 -0 -0 -1 -1 -1 -1 -1 -2 -2 -2 -2 -2 -2 -2 -2 -2 -2 -2
3 3 3 3 3 3 2 2 2 2 2 2 2 2 1 1 1 1 1 1 1 1 1 1 1 1 1 1 2 2 2 2 2 2 2 2 2 2 2 2 2 2 1 1 1 1 0 -0 -1 -1 -1 -1 -1 -1 -1 -1 -2 -2 -2 -2 -2 -2 -2 -2 -2 -2 -2 -2 -2
2 2 2 2 2 2 2 1 1 1 1 1 1 1 1 1 1 1 1 1 1 1 1 1 1 1 1 1 2 2 2 2 2 2 2 2 2 2 2 2 2 1 1 0 0 0 -0 -1 -1 -1 -1 -1 -1 -1 -1 -2 -2 -2 -2 -2 -2 -2 -2 -2 -2 -2 -2 -2 -2
2 2 2 1 1 1 1 1 1 1 1 1 1 1 1 1 1 1 1 1 1 1 1 1 1 1 1 1 1 1 1 1 1 1 1 1 0 0 1 1 1 1 0 -0 -0 -1 -1 -1 -2 -2 -1 -1 -1 -2 -2 -2 -2 -2 -2 -2 -1 -1 -1 -2 -2 -2 -2 -2 -2
1 1 1 0 0 0 0 0 0 0 0 0 0 0 0 1 1 1 1 1 1 1 1 1 1 1 1 1 0 0 0 0 -0 -0 -0 -0 -0 -1 -0 0 0 0 0 -0 -1 -1 -1 -2 -2 -2 -2 -2 -2 -2 -2 -2 -1 -1 -1 -1 -1 -1 -2 -2 -2 -2 -2 -2 -2
0 0 0 0 0 -0 -0 -0 -0 -0 0 0 0 0 1 1 1 1 0 0 0 0 0 0 0 0 -0 -0 -0 -0 -0 -0 -1 -1 -1 -1 -1 -1 -1 -1 -0 -0 -0 -1 -1 -1 -2 -2 -2 -2 -2 -2 -2 -2 -1 -1 -1 -1 -1 -1 -1 -2 -2 -2 -2 -2 -2 -2 -2
-0 0 0 0 -0 -0 0 0 -0 0 0 0 1 1 1 1 1 0 0 -0 -0 -1 -1 -1 -1 -1 -1 -1 -1 -1 -0 -1 -1 -1 -1 -1 -2 -2 -2 -2 -1 -1 -1 -1 -1 -2 -2 -2 -2 -2 -2 -2 -2 -1 -1 -1 -1 -1 -1 -2 -2 -2 -2 -2 -2 -2 -2 -2 -2
-0 0 0 0 0 0 0 0 0 0 0 1 1 1 0 0 0 -0 -0 -1 -1 -1 -1 -1 -1 -1 -1 -2 -1 -1 -1 -1 -1 -1 -2 -2 -2 -2 -2 -2 -2 -2 -1 -1 -2 -2 -2 -3 -3 -2 -2 -2 -2 -1 -1 -1 -1 -1 -1 -2 -2 -2 -2 -2 -2 -2 -2 -2 -2
0 0 0 0 0 0 1 1 1 1 1 0 0 0 -0 -0 -0 -1 -1 -1 -1 -1 -1 -1 -1 -2 -2 -2 -2 -2 -1 -1 -1 -1 -2 -2 -2 -3 -3 -3 -3 -2 -2 -2 -2 -2 -3 -3 -3 -3 -2 -2 -2 -1 -1 -1 -1 -1 -1 -2 -2 -2 -2 -2 -2 -2 -2 -2 -2
Height
742 743 743 744 744 744 745 745 746 747 747 747 747 747 748 748 748 748 748 749 749 749 750 750 751 751 753 753 754 755 756 757 758 759 759 760 761 762 764 766 768 768 769 770 771 772 772 773 773 773 773 774 775 777 778 779 779 779 779 780 780 780 781 781 781 782 782 783 784
741 741 742 742 743 743 744 745 745 746 746 746 747 747 747 747 747 748 748 748 749 750 750 750 750 751 752 753 754 755 756 757 758 759 760 760 761 762 764 765 767 768 768 769 770 770 771 771 771 772 773 774 775 777 777 778 778 778 778 778 779 779 780 780 781 782 783 783 784
740 740 741 741 742 743 743 744 745 745 745 746 746 746 746 747 748 748 748 749 750 751 751 750 750 751 752 753 754 755 756 758 759 760 760 760 761 763 764 765 766 767 767 768 768 769 770 770 771 772 773 774 775 776 776 777 777 777 777 778 778 779 779 780 781 782 783 783 784
740 740 741 741 742 742 743 744 744 745 745 745 746 746 747 747 748 748 749 750 751 752 752 752 752 752 753 754 755 756 757 758 759 760 760 761 762 763 764 765 765 766 766 767 768 769 770 770 772 773 774 774 775 775 775 776 776 776 777 778 778 779 780 780 781 782 782 783 783
740 741 741 741 741 742 743 743 744 745 745 745 746 746 747 748 748 749 750 751 752 753 753 753 754 754 756 756 757 758 759 760 761 761 762 762 762 763 763 764 764 765 766 767 768 769 770 771 772 773 774 774 774 774 775 775 775 776 777 778 778 779 779 780 781 781 781 781 781
741 742 742 742 742 742 743 743 744 745 745 746 746 747 748 749 749 750 750 752 753 754 755 755 756 757 758 759 760 760 760 761 761 761 762 762 762 763 763 763 764 765 766 768 769 770 771 772 773 773 773 774 774 774 774 774 775 775 776 777 778 778 779 779 779 779 779 780 779
742 742 743 743 743 743 744 744 744 745 746 746 747 748 749 749 749 750 751 753 754 755 755 756 758 759 760 760 760 760 760 760 761 761 762 762 763 763 763 764 765 766 767 768 770 771 771 772 772 772 772 772 772 773 773 773 774 775 775 776 777 777 777 778 778 778 778 778 778
742 743 743 744 744 744 745 745 745 745 746 747 748 749 750 750 750 751 752 753 753 754 756 757 758 759 760 760 760 760 760 761 761 762 763 764 765 765 765 765 765 766 768 768 769 770 770 770 771 771 771 771 771 772 772 773 773 774 775 775 776 776 776 776 776 776 777 777 777
743 745 745 745 745 745 745 746 746 746 747 748 749 750 751 751 751 752 752 753 754 755 756 757 758 759 760 760 760 761 762 762 763 764 765 766 766 765 765 765 766 767 767 768 768 769 769 769 770 770 770 771 771 772 772 773 773 774 774 774 775 775 775 775 775 775 775 776 776
745 746 746 746 746 746 746 746 747 747 748 749 750 751 752 752 752 753 753 754 754 755 756 757 759 760 760 761 762 763 763 764 765 766 767 767 766 765 765 765 766 767 768 768 768 769 769 769 770 770 771 771 771 772 772 773 773 773 773 774 774 774 774 774 774 774 774 774 774
747 747 747 747 747 747 747 747 748 748 749 750 751 752 753 753 753 753 754 754 754 755 757 758 760 761 762 763 764 765 766 766 767 767 767 766 766 765 765 766 767 768 768 768 769 769 770 770 770 771 771 771 771 772 772 772 773 773 773 773 773 773 773 773 773 773 773 773 773
747 747 747 747 747 747 748 748 749 750 751 752 752 753 753 753 754 755 755 755 756 757 759 761 762 763 764 765 766 767 767 767 767 767 766 766 766 766 766 767 768 768 769 769 769 770 770 770 771 771 771 771 771 771 772 772 772 772 772 772 773 773 773 773 773 773 772 772 772
747 748 748 748 748 748 748 749 750 751 752 752 753 753 753 754 755 756 757 758 759 761 762 763 765 765 766 767 767 767 767 767 767 766 766 766 766 767 768 768 768 769 769 769 770 770 770 770 770 771 771 771 771 771 771 771 772 772 772 772 772 772 772 772 772 771 771 771 771
748 748 749 749 749 749 749 750 751 752 752 753 754 754 755 756 758 758 759 760 762 763 764 765 766 766 767 767 767 767 767 767 767 767 767 767 768 768 768 769 769 769 770 770 770 770 770 770 770 771 771 771 771 771 771 771 772 772 771 771 771 771 771 771 771 771 770 770 770
749 750 750 750 750 750 750 751 752 753 753 754 756 756 757 758 759 760 761 763 763 764 765 766 766 767 767 767 767 767 767 767 767 768 768 768 768 769 769 769 770 770 770 770 770 770 771 771 771 771 771 771 771 771 771 771 771 771 771 771 771 771 771 770 770 770 770 769 769
751 751 751 751 750 751 751 752 753 754 756 757 758 758 759 761 762 763 763 764 765 766 766 767 767 767 768 768 768 768 768 768 768 768 768 768 769 769 770 770 770 770 770 771 771 771 771 771 771 771 771 771 771 771 771 771 771 771 771 771 770 770 770 770 769 769 769 769 768
752 752 752 752 752 752 753 755 756 757 758 759 760 761 762 763 764 765 765 766 767 767 767 767 768 768 768 768 768 768 768 768 768 769 769 769 770 770 770 770 770 771 771 771 771 771 771 771 771 771 771 771 771 771 771 770 770 770 770 770 770 770 769 769 769 769 768 768 768
754 754 754 754 755 756 757 758 759 760 761 762 763 763 764 765 766 766 767 767 768 768 768 768 768 768 768 768 768 769 769 769 769 769 770 770 770 770 771 771 771 771 771 771 771 771 771 771 771 771 771 771 770 770 770 770 770 770 769 769 769 769 769 768 768 768 768 768 768
757 757 757 758 758 759 760 761 762 763 763 764 765 765 766 767 767 767 768 768 768 768 768 768 768 769 769 769 769 769 770 770 770 770 770 771 771 771 771 771 771 771 771 771 771 771 771 771 771 770 770 770 770 770 769 769 769 769 769 768 768 768 768 768 768 768 767 767 767
759 760 760 761 761 762 763 763 764 765 765 766 766 767 767 768 768 768 768 768 769 769 769 769 769 769 770 770 770 770 770 771 771 771 771 771 771 771 771 771 771 771 771 771 771 771 770 770 770 770 770 769 769 769 769 769 768 768 768 768 768 768 767 767 767 767 766 766 766
761 762 763 763 763 764 764 765 766 766 767 767 767 768 768 768 769 769 769 769 770 770 770 770 770 770 771 771 771 771 771 771 771 771 771 771 771 771 771 771 771 771 771 771 770 770 770 770 770 769 769 769 769 769 768 768 768 768 768 767 767 767 766 766 766 765 765 765 765
763 764 764 764 765 765 766 766 767 767 768 768 768 769 769 769 770 770 770 771 771 771 771 771 771 771 771 771 771 772 772 772 772 772 772 772 772 771 771 771 771 771 771 771 770 770 770 770 769 769 769 769 768 768 768 768 767 767 766 766 765 765 765 764 764 764 764 763 763
764 765 765 766 766 766 767 767 768 768 768 769 770 770 770 771 771 771 772 772 772 772 772 772 772 772 772 772 772 772 772 772 772 772 772 772 772 772 771 771 771 771 771 770 770 770 770 769 769 769 769 768 768 768 767 767 766 766 765 764 764 763 763 763 763 763 763 762 762
766 766 767 767 768 768 768 769 769 770 770 771 771 772 772 772 773 773 773 773 773 773 773 773 773 773 773 773 773 773 773 773 773 773 773 772 772 772 772 771 771 771 770 770 770 770 769 769 769 768 768 768 767 767 766 765 765 764 764 763 763 762 762 762 762 761 761 761 761
768 768 768 769 770 770 771 771 771 772 772 773 773 773 773 773 774 774 774 774 774 774 774 774 774 774 774 774 774 773 773 773 773 773 773 772 772 772 771 771 771 770 770 770 769 769 769 769 768 768 767 767 766 765 765 764 764 763 763 763 762 762 761 761 760 760 760 760 760
770 770 771 772 772 772 773 773 773 773 774 774 774 774 774 774 775 775 775 774 774 774 774 774 774 774 774 774 774 773 773 773 773 772 772 772 771 771 771 770 770 769 769 769 768 768 768 768 767 767 766 766 765 764 764 763 763 763 762 762 761 761 761 760 760 759 759 759 759
772 773 773 773 773 774 774 774 774 775 775 775 775 775 775 775 775 775 775 775 775 775 774 774 774 774 774 774 773 773 773 772 772 772 771 771 771 770 770 769 769 768 768 768 767 767 767 767 766 766 765 765 764 764 763 763 762 762 761 761 761 760 760 759 759 758 758 758 758
774 774 775 775 775 775 775 775 775 775 775 775 775 775 775 775 775 775 775 775 774 774 774 774 774 773 773 773 773 773 772 772 771 771 771 770 770 769 769 768 768 768 767 767 766 766 765 765 765 765 764 764 763 763 762 761 761 760 760 760 760 759 759 759 758 758 757 757 757
775 775 775 775 775 775 776 776 776 776 776 776 776 776 775 775 775 775 775 774 774 774 774 773 773 773 773 773 772 772 772 771 771 770 770 769 769 768 768 767 767 766 766 765 765 764 764 764 764 763 763 763 762 762 761 760 760 759 759 759 759 758 758 758 758 757 757 756 755
776 776 776 776 776 776 776 776 776 776 776 776 776 775 775 775 775 774 774 774 774 774 774 773 773 773 773 772 772 771 771 770 770 769 769 768 768 767 767 766 766 765 764 764 763 763 763 763 763 762 762 762 761 761 760 759 759 759 758 758 758 758 758 757 757 756 756 755 755
776 776 776 776 776 776 776 776 776 776 776 776 776 775 775 775 774 774 774 774 774 774 774 773 773 773 772 772 771 771 770 769 769 768 768 767 766 766 765 765 764 764 763 763 762 762 762 761 761 761 761 760 760 760 759 759 759 758 758 758 757 757 757 756 756 755 755 754 753
776 776 776 776 776 776 776 776 776 776 776 776 776 775 775 775 775 775 775 774 774 774 773 773 772 772 771 771 770 769 769 768 768 767 766 766 765 764 764 764 763 763 762 762 761 761 761 760 760 760 760 760 760 760 759 759 758 758 757 757 757 756 756 755 755 754 753 753 752
776 776 776 776 776 776 776 776 776 776 776 776 776 776 775 775 775 775 774 774 773 773 772 772 771 770 770 769 769 768 768 767 767 766 766 765 764 764 763 763 763 763 762 762 761 761 760 760 760 760 759 759 759 759 758 758 758 757 756 756 755 755 754 754 753 753 752 751 751
777 777 777 777 777 777 777 777 777 777 777 776 776 776 775 775 774 774 773 773 773 772 772 771 770 770 769 769 768 768 768 767 767 766 766 765 764 764 763 763 763 763 762 762 761 760 760 760 759 759 759 759 758 758 757 757 756 756 755 754 754 753 753 752 752 751 750 749 749
777 777 777 778 778 778 778 777 777 777 776 776 776 775 775 774 774 773 773 773 772 772 771 771 771 770 770 769 769 768 768 767 767 766 766 765 765 764 763 763 763 763 762 761 761 760 759 759 759 758 758 758 757 757 756 755 755 754 753 753 752 751 751 750 749 749 748 748 747
778 778 778 778 778 778 778 778 777 777 776 776 776 775 775 774 774 774 773 773 772 772 772 771 771 770 770 769 769 768 768 768 767 766 766 765 765 764 763 762 762 762 761 761 760 759 758 758 758 757 757 757 756 755 754 754 753 752 751 751 750 749 749 748 748 747 746 746 745
779 779 779 779 778 778 778 778 777 777 777 776 776 776 775 775 775 774 774 773 773 772 772 772 771 771 770 769 769 768 768 768 767 766 765 765 764 763 762 761 760 760 760 759 758 758 757 757 756 756 756 755 754 753 753 752 751 750 750 749 748 748 747 747 746 745 744 744 743
780 780 779 779 779 779 778 778 778 778 777 777 777 776 776 775 775 775 774 774 773 773 772 771 771 770 770 769 768 768 767 767 766 765 765 764 763 763 761 760 759 758 758 758 757 756 756 755 755 754 754 754 753 752 751 751 750 749 748 747 746 746 745 745 744 743 742 742 741
780 780 780 779 779 779 779 778 778 778 778 777 777 776 776 775 775 775 774 774 773 773 772 771 770 770 769 768 768 767 766 766 765 764 764 763 762 761 760 759 758 757 757 756 755 755 754 754 753 753 753 752 752 751 750 749 748 747 747 746 745 744 743 743 742 741 740 740 739
780 780 780 779 779 779 779 779 778 778 777 777 776 776 776 775 775 774 774 773 773 772 771 770 769 769 768 767 766 765 764 764 763 763 763 762 761 760 759 758 757 756 755 755 754 753 753 752 752 752 751 751 750 749 749 748 747 746 745 744 743 743 742 741 740 739 738 738 737
780 780 780 780 779 779 778 778 778 777 777 777 776 776 775 774 774 773 773 772 772 771 770 769 768 768 767 766 765 764 763 762 762 761 761 760 759 759 758 757 756 754 754 753 753 752 751 751 750 750 750 750 749 748 747 746 745 744 743 743 742 741 740 739 738 738 737 736 735
Wind_Speed
13 12 12 11 11 11 11 10 11 11 12 11 10 10 10 10 8 7 8 9 11 13 15 16 18 17 16 16 16 16 16 16 16 16 17 18 18 18 17 17 16 16 16 15 15 14 12 10 8 7 6 6 6 6 4 3 1 1 2 3 4 5 6 6 6 6 6 7 7
9 10 10 10 10 10 9 9 8 9 9 9 9 9 10 10 11 12 13 15 16 17 18 20 21 21 20 19 19 19 19 19 18 19 19 19 19 18 17 15 14 14 13 12 11 10 9 8 7 6 6 5 5 5 3 2 0 1 2 4 5 6 6 6 6 6 6 7 7
7 8 9 10 11 11 11 11 11 12 13 14 14 14 15 16 18 19 20 20 20 20 21 22 23 23 23 23 22 22 21 20 20 20 20 19 18 16 14 13 11 10 9 8 7 6 6 5 5 5 5 5 5 5 4 3 1 1 3 4 5 6 7 6 6 7 7 8 8
11 13 14 16 17 18 18 18 19 20 20 20 20 20 21 22 23 23 23 23 23 22 22 23 23 23 23 23 23 22 21 20 19 19 19 19 18 16 13 11 9 8 6 5 5 4 5 5 5 6 6 6 6 6 5 5 3 3 3 4 4 5 5 6 6 7 7 8 8
16 17 18 21 23 23 23 23 24 24 24 24 25 25 25 26 26 26 26 26 24 23 23 23 22 22 21 21 21 20 20 19 18 17 17 17 16 15 13 11 9 7 6 5 5 5 6 6 7 7 7 7 7 6 6 5 5 4 4 4 3 4 4 5 5 5 5 6 7
22 22 23 24 25 25 25 26 26 26 26 26 27 28 27 27 28 28 27 26 24 23 22 21 20 20 19 19 19 19 18 18 17 16 15 14 13 12 10 9 8 7 6 5 5 5 5 5 5 5 5 5 4 5 5 6 6 6 6 6 6 6 6 6 5 5 5 5 6
25 25 26 26 27 28 28 28 29 29 29 29 29 28 28 28 28 27 27 25 23 22 20 19 18 17 16 16 15 15 15 14 13 13 12 12 11 10 9 8 7 6 5 4 3 3 2 2 2 2 1 1 1 3 5 6 7 8 9 9 9 10 10 10 10 9 9 9 9
29 28 29 29 30 30 31 31 31 31 31 30 29 28 27 27 27 26 25 24 23 21 19 17 15 14 14 13 14 13 12 11 10 9 9 8 8 7 7 7 6 5 4 3 3 2 2 2 2 2 2 3 4 4 6 7 8 8 9 10 10 11 11 12 12 13 13 14 14
30 30 30 31 31 31 31 31 31 31 30 29 28 27 26 25 25 24 24 23 21 19 18 16 14 13 12 12 12 11 10 9 8 7 7 6 6 7 7 6 6 5 5 5 5 5 5 5 5 5 5 5 5 5 6 7 8 8 9 9 10 10 11 12 12 13 14 14 14
29 29 30 31 31 31 31 31 30 30 29 28 27 25 24 24 23 23 22 21 19 18 17 16 14 12 12 11 11 10 8 7 7 6 6 6 6 7 7 7 7 6 6 6 6 6 6 6 6 6 6 6 5 6 7 7 8 8 9 9 10 10 10 11 11 11 12 12 12
29 28 29 30 30 30 30 30 29 28 28 27 25 24 23 23 22 21 20 18 18 18 17 14 12 11 11 10 10 9 8 7 6 6 6 6 7 8 8 8 7 7 7 7 7 7 7 7 6 6 6 6 6 6 7 8 8 8 9 10 11 11 11 11 12 11 11 12 12
28 28 28 29 29 29 29 29 28 27 26 25 24 24 23 22 21 19 17 16 17 16 15 12 11 10 10 10 10 9 9 8 7 7 7 8 8 8 8 8 7 7 7 7 7 7 7 7 6 6 6 7 7 8 8 9 9 10 10 11 12 12 12 13 12 12 12 12 13
27 27 28 28 28 28 28 28 27 26 25 24 24 23 22 21 18 16 15 15 15 15 13 12 11 11 11 11 10 10 10 9 9 8 9 9 9 8 8 7 7 7 7 7 7 7 7 7 7 7 7 8 8 8 9 9 10 10 11 11 12 12 13 13 13 13 13 13 13
27 27 27 27 27 27 28 27 27 26 25 24 23 22 21 20 19 17 16 16 15 15 14 13 12 12 12 12 11 11 10 10 9 9 9 8 8 7 7 7 6 6 6 6 6 6 6 6 7 7 7 7 7 8 8 9 9 10 10 11 11 12 12 12 13 13 13 13 13
28 28 27 27 28 28 28 28 27 26 26 25 24 23 22 21 20 18 17 17 16 15 15 14 14 14 13 12 12 11 10 10 9 9 8 8 7 7 6 6 6 5 5 5 5 5 5 5 5 5 6 6 6 7 7 7 8 8 9 9 10 10 11 11 12 12 13 13 13
28 28 28 28 29 29 29 28 28 27 26 25 24 23 22 21 20 19 18 18 17 16 15 15 15 14 13 12 11 11 10 9 9 8 8 8 7 6 6 5 5 5 5 4 4 4 4 4 4 4 5 5 5 6 6 6 7 7 7 8 8 9 9 10 11 11 12 12 13
29 29 29 29 29 29 28 28 27 26 25 24 23 22 21 21 20 19 18 18 17 16 15 15 14 13 12 12 11 10 10 9 9 8 8 7 7 6 6 5 5 5 4 4 4 4 4 4 4 4 4 5 5 5 6 6 6 7 7 7 8 8 9 9 10 10 11 12 12
29 29 29 29 29 29 28 27 26 25 24 23 22 21 21 20 19 19 18 17 16 15 15 14 13 12 11 11 10 9 9 9 8 8 7 7 6 5 5 5 4 4 4 4 4 4 4 4 4 4 4 4 5 5 6 6 7 7 8 8 8 9 9 9 10 10 10 11 11
29 29 29 29 28 28 27 26 25 24 23 22 21 21 20 19 18 17 17 16 15 14 13 13 12 11 10 10 9 9 8 8 7 7 6 6 5 5 5 4 4 4 4 4 4 3 3 3 3 4 4 5 5 6 6 7 8 8 9 9 9 10 10 10 10 10 10 10 11
28 28 28 27 27 26 26 25 24 23 22 21 20 19 19 18 17 16 16 15 14 12 12 11 11 10 10 9 8 8 7 7 6 6 6 5 5 4 4 4 4 4 4 4 4 3 3 4 4 4 5 6 6 7 8 8 9 9 10 10 10 10 10 10 10 10 10 11 11
28 27 26 26 25 25 24 23 22 21 20 20 19 18 17 16 15 15 14 13 12 11 11 10 10 9 9 8 8 7 7 6 6 6 5 5 5 4 4 4 4 4 4 4 4 4 4 4 5 5 6 7 7 8 8 9 10 10 11 11 11 11 11 11 11 11 11 11 12
26 26 25 24 23 23 22 21 20 19 19 18 17 16 15 15 14 14 13 12 11 10 10 9 9 9 8 8 7 7 6 6 5 5 5 5 4 4 4 4 4 4 4 4 4 4 4 5 5 6 7 7 8 8 9 10 11 12 12 13 13 13 12 12 12 12 13 13 13
25 24 23 22 22 21 20 19 18 18 17 17 16 15 14 14 13 12 11 10 9 9 9 9 8 8 7 7 6 6 5 5 4 4 4 4 4 4 4 4 4 4 4 4 4 5 5 6 6 7 7 8 9 9 10 11 12 13 14 14 14 14 14 14 14 14 14 14 15
23 22 22 21 20 19 18 18 17 17 16 15 14 14 13 12 11 10 10 9 9 9 8 8 7 7 6 6 5 5 4 4 3 3 3 3 4 4 4 5 5 5 5 5 5 5 5 6 8 8 9 9 9 10 11 12 13 14 14 15 15 15 15 15 15 15 15 16 16
22 21 20 19 19 18 17 17 16 16 15 14 13 12 12 11 10 9 9 8 8 8 7 7 6 6 5 5 4 4 3 3 3 3 3 3 4 4 5 5 6 6 6 6 5 5 5 6 8 9 9 10 10 11 11 12 13 14 14 14 15 15 16 16 16 16 16 17 17
20 20 19 19 18 17 17 16 16 15 14 13 12 11 11 10 9 8 8 8 7 7 7 6 6 5 5 5 4 4 4 4 4 5 5 5 5 6 6 6 7 7 7 7 6 5 5 6 7 8 9 10 10 11 12 12 13 13 13 13 13 14 15 16 17 17 17 17 17
20 19 19 18 18 17 17 16 15 14 13 12 12 11 10 9 8 8 8 7 7 7 6 6 6 6 5 5 5 5 5 6 6 6 6 6 7 7 7 7 7 7 7 7 6 6 6 7 8 8 8 9 10 11 12 12 13 12 12 12 13 13 14 15 17 18 18 18 18
19 18 18 17 17 17 17 16 15 14 13 12 11 10 9 9 8 8 8 8 7 7 7 7 7 6 6 6 6 7 7 7 7 7 7 7 7 7 8 8 7 8 7 7 6 6 6 8 9 9 9 9 10 11 11 12 12 12 12 12 13 14 15 16 17 17 17 17 17
18 17 17 17 17 17 16 16 15 14 13 12 11 10 9 9 9 9 9 8 8 8 8 8 7 7 7 7 7 7 7 7 8 8 8 8 8 8 8 8 8 8 8 8 7 6 7 9 9 10 9 9 10 11 11 12 12 12 13 13 14 15 15 16 16 15 15 15 16
17 16 16 16 16 16 16 16 15 14 13 12 11 10 10 9 9 9 9 9 9 9 9 8 8 8 8 8 8 8 8 8 8 9 9 9 9 9 9 9 9 9 9 9 8 8 8 9 10 10 11 11 11 11 11 12 12 13 13 14 15 15 15 15 15 15 15 15 15
16 16 16 16 16 16 16 15 14 13 13 12 11 11 10 10 10 10 10 10 10 9 9 9 9 9 9 9 9 9 9 9 9 10 10 11 11 11 11 10 10 10 10 10 10 9 9 9 10 11 11 11 11 11 11 11 12 13 13 14 15 16 15 15 15 15 15 16 16
15 15 15 15 15 15 14 14 13 13 12 12 11 11 11 11 11 11 10 10 10 10 11 11 11 11 11 11 11 11 11 11 11 11 12 12 12 13 12 12 12 12 12 12 11 11 11 10 11 12 12 12 11 11 11 12 12 12 13 14 15 15 15 15 15 16 16 17 17
15 14 14 14 14 14 13 13 12 12 12 11 11 12 12 12 12 12 12 12 12 13 13 13 13 14 14 13 13 13 12 12 12 12 12 13 13 13 13 13 12 12 12 12 12 12 11 11 12 12 12 12 12 12 12 13 13 13 14 15 15 16 16 16 17 17 17 17 17
14 14 13 13 13 12 12 12 11 11 11 12 12 12 13 13 14 14 14 14 14 14 14 14 14 14 14 14 14 13 13 13 12 12 12 13 13 14 14 13 13 12 12 12 12 12 12 12 12 13 13 13 13 13 13 13 14 14 15 16 16 16 17 17 17 17 17 17 17
13 12 12 12 11 11 11 11 11 11 12 13 13 13 14 14 15 15 16 15 15 15 15 14 14 14 13 13 13 13 13 13 12 12 12 12 13 14 14 14 14 13 12 12 12 12 12 12 13 13 13 13 13 13 13 14 14 15 16 16 16 17 17 17 17 17 17 17 17
11 11 10 10 10 10 10 11 11 12 13 13 14 14 14 14 15 15 15 15 15 15 15 14 14 14 13 13 13 12 12 12 12 12 12 13 13 14 15 16 16 14 13 12 12 12 12 12 13 14 14 14 14 14 14 14 15 15 16 16 17 17 17 17 17 17 17 17 17
9 9 8 8 8 9 10 10 11 12 13 13 14 14 14 14 14 15 15 15 16 16 15 15 15 14 14 14 14 13 13 12 13 13 13 13 14 15 17 18 18 16 15 13 12 12 12 13 14 14 14 14 14 14 14 14 15 15 16 16 17 17 17 17 17 17 17 17 17
7 7 7 7 8 9 10 10 11 12 12 13 13 14 14 14 14 14 15 15 16 16 16 16 16 15 15 15 15 14 14 13 13 14 14 15 15 16 17 19 19 18 16 14 13 12 13 14 15 14 14 14 14 14 14 14 15 15 16 16 16 16 16 17 17 17 17 17 17
7 7 8 8 9 9 10 10 11 12 13 13 14 14 14 14 15 15 15 15 16 16 17 17 17 16 16 16 16 16 16 14 14 14 15 15 16 16 17 19 20 19 17 15 13 13 13 15 15 15 15 14 14 15 15 15 15 16 16 16 16 17 17 17 17 17 17 17 18
8 9 9 9 10 10 10 11 11 12 13 14 14 15 15 15 15 16 16 16 16 17 17 18 18 17 17 16 17 17 17 17 15 15 15 16 16 17 17 19 20 20 18 15 13 13 14 15 15 15 15 15 15 15 15 15 16 16 16 16 16 17 17 17 17 17 18 18 18
10 10 10 10 10 11 12 12 13 13 14 14 14 15 15 16 16 16 17 17 17 17 18 18 18 18 17 17 17 18 18 18 18 16 16 16 17 17 18 18 19 19 17 15 13 13 13 15 15 15 15 15 15 15 15 16 16 15 15 15 16 17 17 17 17 17 17 18 18
Wind_Direction
219 224 228 232 233 232 229 226 225 224 222 216 206 199 197 195 183 168 156 146 131 127 129 131 134 139 146 153 158 158 156 154 150 148 146 144 142 142 142 143 145 147 152 159 161 163 166 167 167 163 157 154 152 150 148 145 155 229 256 262 265 268 271 278 285 289 288 281 275
211 217 219 217 213 206 199 191 189 188 186 179 165 155 152 149 135 124 119 117 115 114 116 120 126 131 135 139 143 143 142 141 140 140 139 138 139 141 143 144 144 146 147 147 145 144 145 147 149 149 153 161 163 162 157 147 132 273 267 272 277 280 282 283 284 284 283 282 279
167 173 175 171 165 156 148 142 139 136 133 131 129 125 122 119 115 111 108 108 109 108 106 107 113 119 122 126 130 133 136 138 140 141 141 141 144 147 149 147 147 146 145 142 140 140 145 154 163 171 179 184 180 168 153 140 153 224 254 269 275 279 279 277 275 275 275 275 277
137 137 136 133 129 125 121 118 116 114 114 116 117 115 112 110 108 107 106 106 105 102 99 99 103 106 110 113 118 123 128 132 135 136 136 138 141 144 147 148 147 146 147 152 158 166 175 184 190 192 190 188 184 177 169 165 178 203 234 261 275 282 284 283 283 284 286 285 286
122 123 122 119 117 116 115 112 110 108 109 111 111 109 107 105 104 103 103 101 98 95 95 94 94 95 98 101 105 109 112 114 115 117 118 120 125 129 133 136 137 139 144 153 165 175 184 191 194 194 193 194 194 192 192 196 206 218 234 253 272 287 292 296 300 305 311 311 307
107 107 108 109 110 112 112 109 108 108 108 108 105 103 101 101 100 99 97 95 93 91 88 86 85 86 87 88 90 91 92 92 92 92 92 94 98 103 108 111 113 117 123 133 146 159 172 183 185 186 189 196 205 215 224 231 242 253 261 268 275 281 285 287 291 295 301 306 308
102 102 102 103 105 105 105 105 106 106 105 102 100 98 97 98 97 96 95 93 90 86 82 79 78 78 77 76 74 72 71 70 69 68 69 72 76 81 84 86 88 92 97 103 112 125 144 168 165 161 177 232 268 275 273 273 278 281 282 283 284 285 286 285 284 284 283 283 285
102 101 101 102 103 103 102 102 102 101 100 97 96 95 95 94 94 93 92 90 88 85 82 79 76 74 71 68 65 62 60 58 55 54 53 55 60 65 66 66 65 65 63 55 45 29 9 348 354 356 349 335 327 315 306 301 300 298 296 293 293 293 292 290 288 286 284 282 281
99 99 100 101 101 101 100 99 98 96 95 94 92 92 91 90 90 89 88 87 86 85 83 81 78 74 70 67 65 63 60 57 55 52 50 48 50 51 50 47 44 38 30 20 11 3 355 352 354 352 347 342 335 326 318 313 310 307 303 300 299 297 296 293 291 290 288 286 285
98 98 98 98 98 97 96 95 93 93 92 91 90 89 87 86 85 84 84 83 81 79 77 74 73 70 69 68 67 66 64 61 57 54 49 45 42 40 39 35 30 25 19 11 5 1 357 356 357 355 349 342 337 330 322 317 315 312 308 305 303 302 301 299 298 298 297 295 294
99 99 98 97 96 95 94 93 91 90 90 90 89 87 85 83 81 80 80 78 75 73 70 68 67 67 69 71 72 73 72 70 66 60 53 46 40 36 33 29 24 19 15 9 5 2 1 0 360 357 350 343 337 330 325 320 316 314 311 308 306 305 304 305 306 308 308 307 305
99 98 97 96 96 95 94 93 92 91 90 90 88 86 84 81 80 79 78 77 75 75 74 73 72 74 76 78 78 77 75 71 66 60 53 48 43 38 34 29 24 19 15 10 5 2 1 359 356 351 345 338 333 328 324 319 316 312 309 307 305 305 306 307 309 311 312 310 309
96 96 96 96 96 95 95 94 93 92 91 90 88 86 85 84 83 83 83 84 84 85 86 86 85 84 82 81 78 75 71 67 62 57 53 50 47 42 38 33 27 21 16 11 4 360 356 350 345 340 336 331 327 323 319 316 313 310 308 306 305 306 307 308 310 310 311 310 308
95 95 96 96 96 96 95 95 93 92 92 92 91 90 90 90 90 90 91 92 93 94 94 93 90 86 83 80 77 74 71 67 63 60 58 55 52 47 43 38 31 24 18 11 3 356 349 343 337 332 328 324 321 318 314 312 310 308 307 308 309 309 310 310 311 311 311 310 308
94 95 96 96 96 96 95 94 93 93 93 93 93 93 93 92 92 92 93 94 95 94 94 92 89 86 84 81 79 76 74 71 68 66 63 61 57 53 48 43 37 30 22 14 5 356 348 342 335 328 323 318 314 313 311 310 309 308 308 309 310 311 312 313 315 314 313 312 311
92 92 93 94 94 93 92 92 92 93 93 93 94 94 94 93 93 94 94 94 94 94 92 91 89 88 86 84 81 78 77 74 71 69 66 63 60 56 51 46 40 34 26 17 8 360 351 341 334 328 322 318 314 313 312 312 312 313 313 313 313 315 316 317 318 318 317 316 316
89 89 91 91 92 91 92 92 93 94 94 95 95 95 95 95 95 95 94 94 94 94 92 90 89 88 86 84 81 78 75 72 69 67 64 61 58 54 49 44 38 30 23 13 6 358 349 340 330 324 321 319 318 318 318 318 318 319 319 319 319 320 320 321 321 321 321 321 320
89 89 91 92 92 93 94 95 96 96 96 96 96 96 96 96 96 95 94 94 93 91 90 89 87 84 82 79 77 74 71 69 67 64 62 59 55 50 45 40 32 25 17 10 3 356 347 340 331 325 324 324 325 326 326 326 326 325 325 324 324 323 323 323 323 322 322 321 318
90 91 92 93 94 95 96 97 97 97 97 97 96 96 96 95 95 94 93 91 89 87 86 85 84 81 78 76 74 72 69 67 65 63 61 58 54 49 44 37 29 22 16 10 4 356 348 342 337 336 336 337 336 335 333 331 330 328 327 326 325 324 323 323 322 320 319 316 314
91 91 92 93 95 96 97 97 97 97 97 96 96 95 94 93 93 91 89 87 86 84 84 82 81 79 77 74 72 70 68 66 63 61 59 54 51 46 41 33 26 20 13 7 1 354 349 346 346 346 346 344 341 338 335 331 328 326 325 324 322 322 321 320 319 318 316 314 312
90 91 92 93 94 95 95 95 95 95 95 94 93 92 91 90 89 87 86 85 85 84 83 81 80 78 76 73 70 67 64 61 58 55 50 44 39 34 28 22 16 9 2 356 349 345 344 346 348 348 345 341 338 334 331 327 324 322 321 319 318 318 318 317 317 317 316 315 313
89 90 91 91 91 92 92 93 93 93 92 91 90 89 89 87 86 85 85 86 85 84 82 80 78 76 73 70 66 62 59 54 49 44 37 30 24 17 10 4 360 353 347 340 334 332 336 342 345 344 340 335 331 327 325 322 321 319 317 316 315 315 315 315 315 315 314 313 312
87 88 88 88 89 90 90 91 91 90 90 89 88 88 87 86 85 85 86 85 83 80 78 76 74 71 69 66 62 58 54 49 42 34 25 16 8 0 353 347 341 337 333 327 323 327 334 340 340 337 332 327 324 321 320 318 317 316 314 314 313 312 312 312 312 311 310 309 308
86 87 87 88 88 89 90 90 90 90 89 88 88 87 86 86 85 85 84 82 79 76 74 72 69 67 65 61 57 52 47 42 35 28 16 2 352 344 338 332 329 326 323 318 317 326 336 339 336 331 326 321 319 317 315 314 313 313 312 312 311 311 310 309 309 308 307 306 304
86 87 87 88 89 90 90 90 89 89 88 88 88 88 87 86 85 83 82 80 77 74 71 69 67 64 59 53 46 38 29 20 13 6 359 349 341 334 329 326 324 322 319 315 316 325 336 338 332 326 322 318 315 314 312 311 310 310 310 310 310 310 309 308 307 306 305 304 303
87 87 87 87 88 88 87 86 85 86 86 86 86 86 85 84 83 81 80 77 74 70 67 64 60 56 49 40 30 20 10 3 357 350 345 339 335 331 328 325 323 321 317 313 312 320 331 334 330 325 320 317 314 312 311 309 307 307 308 308 308 307 306 305 304 303 303 302 302
86 86 85 86 85 83 82 81 81 81 81 80 80 79 79 78 77 75 73 70 66 62 57 52 46 39 31 23 15 8 2 356 351 345 340 336 332 330 328 327 324 321 318 314 315 323 331 330 327 323 320 316 313 311 309 308 307 307 307 306 305 303 302 302 302 302 302 302 303
83 83 83 82 81 79 77 76 75 73 72 71 71 71 71 70 68 65 62 58 54 49 44 38 31 25 17 11 6 1 356 351 346 341 338 334 331 330 329 329 328 325 322 320 324 331 333 328 324 321 319 315 312 310 308 308 307 307 305 304 302 300 299 300 300 301 302 302 303
79 78 78 77 75 73 71 68 66 65 64 63 63 62 61 60 57 53 49 45 40 35 31 27 20 14 8 5 1 357 352 347 343 339 336 334 332 333 333 334 334 331 329 328 332 335 332 326 323 321 320 318 315 312 309 308 307 305 303 301 299 299 299 299 300 300 300 301 301
73 72 71 70 69 66 64 61 59 57 57 55 54 53 50 48 45 41 37 33 30 26 22 17 12 8 5 2 358 355 352 348 344 341 338 336 335 336 337 338 337 335 332 331 332 332 331 327 324 322 321 320 317 313 310 307 304 301 300 298 297 297 298 298 298 297 297 297 298
67 66 65 63 62 60 57 54 52 50 48 46 45 42 40 38 36 32 29 26 24 20 16 12 9 7 4 1 358 356 353 350 347 344 341 338 336 335 336 336 336 333 330 328 327 326 326 325 323 321 320 318 315 311 307 303 300 298 296 295 295 295 296 295 294 293 293 294 294
60 58 57 56 54 53 50 47 45 42 39 37 36 35 34 33 31 28 25 22 19 15 12 9 7 4 2 359 357 355 353 350 347 344 340 337 334 332 331 331 331 329 326 322 321 320 320 320 318 317 316 314 310 305 300 297 295 293 291 291 291 291 291 290 290 290 290 290 290
52 51 49 48 47 45 42 40 37 34 33 32 32 32 31 29 27 24 21 18 15 12 9 6 3 1 358 355 353 351 349 346 343 340 336 332 329 326 325 324 325 324 321 317 315 314 314 313 312 311 310 307 303 299 294 291 290 289 288 288 288 288 288 288 288 288 287 287 287
45 44 43 41 40 38 36 34 31 29 29 29 30 29 27 24 21 18 16 13 11 8 5 3 360 357 354 350 348 345 342 340 337 334 330 326 322 319 317 317 318 318 316 313 310 309 308 308 307 306 304 302 298 294 291 289 287 287 287 287 286 286 287 288 288 287 286 285 285
39 38 37 36 35 32 30 28 26 25 24 24 24 23 22 19 16 13 10 7 5 2 360 357 354 351 347 344 341 338 335 332 329 326 323 320 316 313 311 310 311 312 312 309 306 305 304 304 303 302 301 298 295 292 290 288 287 287 286 286 286 287 288 289 288 287 286 285 285
34 33 32 31 30 28 25 23 21 20 19 19 18 16 15 13 11 7 3 360 357 355 353 351 348 345 342 338 335 332 329 326 322 319 317 314 312 309 307 306 307 309 309 307 304 302 302 302 301 300 299 297 294 291 290 289 288 287 287 287 288 289 290 289 288 287 286 285 285
31 30 29 27 25 23 20 18 16 15 14 13 11 8 6 5 3 0 356 352 350 348 346 344 343 342 338 334 329 326 323 320 317 315 312 311 309 307 305 305 305 307 308 307 304 302 302 301 300 300 298 296 293 291 290 289 288 288 288 288 288 289 289 289 288 287 286 285 285
30 29 27 25 22 19 16 13 11 9 7 5 3 0 358 355 354 352 349 347 345 342 339 338 338 336 333 329 324 321 318 316 314 311 310 308 307 306 305 304 305 306 308 307 306 304 302 300 299 298 297 295 293 291 290 289 288 287 287 287 288 289 289 289 289 288 286 285 285
28 27 24 21 17 13 11 8 5 2 359 356 354 352 349 347 346 345 343 341 339 337 335 333 331 330 328 325 320 317 316 314 312 309 307 306 306 305 304 303 304 305 307 308 307 304 301 299 298 297 295 293 291 290 288 287 286 286 286 286 288 289 290 289 288 287 286 285 285
25 23 20 16 11 6 2 360 357 354 351 348 346 345 343 341 339 338 337 336 334 332 330 327 325 324 323 320 317 314 313 313 311 309 307 305 305 303 303 302 303 304 306 307 306 304 301 298 296 295 293 291 289 288 287 286 285 285 285 286 289 290 290 289 288 287 287 287 286
20 17 13 8 2 357 353 351 349 346 344 342 341 339 337 336 334 333 332 331 329 327 325 322 320 319 317 315 313 311 311 311 311 310 309 306 305 304 302 302 302 302 304 305 305 303 300 297 294 293 291 289 288 286 286 287 286 286 286 287 288 289 290 289 288 287 287 287 287